Location: Follega
(52.8850°N, 5.7362°E)
Time: 21:41:41
(UTC+00:00)

STARLINK-1236 - Pass Details

Date: 05 October 2020
Orbit: 548 x 551 km, 53.0° (Epoch: 26 October)

Event Time Altitude Azimuth Distance (km) Brightness Sun altitude
Exits shadow 04:30:00 15° 234° (SW) 1,507 5.3 -12.2°
Maximum altitude 04:30:33 16° 224° (SW) 1,489 5.4 -12.2°
Drops below altitude 10° 04:33:04 10° 187° (S) 1,822 6.1 -11.8°
Sets 04:36:00 0° 165° (SSE) 2,711 7.3 -11.4°
